| time (UTC) | temp F | wind direction | speed MPH | gust MPH | rain 1hr in | rain 24hr in | rain mn in | humidity % | barometer mb |
| 20260902113400 | 85 | 50 | 0.0 | 0.0 | 0.00 | 0.00 | 0.00 | 100 | 1014.5 |
| 20260902113109 | 85 | 50 | 0.0 | 0.0 | 0.00 | 0.00 | 0.00 | 100 | 1014.3 |
| 20260902112900 | 85 | 50 | 0.0 | 0.0 | 0.00 | 0.00 | 0.00 | 100 | 1014.3 |
| 20260902112400 | 85 | 50 | 0.0 | 0.0 | 0.00 | 0.00 | 0.00 | 100 | 1014.3 |
| 20260902112118 | 85 | 50 | 0.0 | 0.0 | 0.00 | 0.00 | 0.00 | 100 | 1014.2 |
| 20260902111900 | 85 | 50 | 0.0 | 0.0 | 0.00 | 0.00 | 0.00 | 100 | 1014.2 |
| 20260902111623 | 85 | 50 | 0.0 | 3.0 | 0.00 | 0.00 | 0.00 | 100 | 1014.1 |
| 20260902111400 | 85 | 50 | 0.0 | 3.0 | 0.00 | 0.00 | 0.00 | 100 | 1014.1 |
| 20260902110900 | 85 | 82 | 1.0 | 4.0 | 0.00 | 0.00 | 0.00 | 100 | 1014.1 |
| 20260902110701 | 85 | 122 | 2.0 | 3.0 | 0.00 | 0.00 | 0.00 | 100 | 1014.1 |
| 20260902110400 | 85 | 122 | 2.0 | 3.0 | 0.00 | 0.00 | 0.00 | 100 | 1014.1 |
| 20260902110220 | 85 | 63 | 0.0 | 0.0 | 0.00 | 0.00 | 0.00 | 100 | 1014.1 |
| 20260902105900 | 85 | 63 | 0.0 | 0.0 | 0.00 | 0.00 | 0.00 | 100 | 1014.1 |
| 20260902105400 | 85 | 63 | 0.0 | 0.0 | 0.00 | 0.00 | 0.00 | 100 | 1014.0 |
| 20260902104900 | 85 | 63 | 0.0 | 0.0 | 0.00 | 0.00 | 0.00 | 100 | 1014.0 |
| 20260902104632 | 85 | 63 | 0.0 | 0.0 | 0.00 | 0.00 | 0.00 | 100 | 1014.0 |
| 20260902104400 | 85 | 63 | 0.0 | 0.0 | 0.00 | 0.00 | 0.00 | 100 | 1014.0 |
| 20260902104239 | 85 | 63 | 0.0 | 0.0 | 0.00 | 0.00 | 0.00 | 100 | 1014.0 |
| 20260902103900 | 85 | 63 | 0.0 | 0.0 | 0.00 | 0.00 | 0.00 | 100 | 1014.0 |
| 20260902103632 | 85 | 63 | 0.0 | 0.0 | 0.00 | 0.00 | 0.00 | 100 | 1013.9 |
| 20260902103400 | 85 | 63 | 0.0 | 0.0 | 0.00 | 0.00 | 0.00 | 100 | 1013.9 |
| 20260902102900 | 85 | 63 | 0.0 | 0.0 | 0.00 | 0.00 | 0.00 | 100 | 1013.9 |
| 20260902102509 | 85 | 63 | 0.0 | 0.0 | 0.00 | 0.00 | 0.00 | 100 | 1013.9 |
| 20260902102400 | 85 | 63 | 0.0 | 0.0 | 0.00 | 0.00 | 0.00 | 100 | 1013.9 |
| 20260902101900 | 85 | 63 | 0.0 | 0.0 | 0.00 | 0.00 | 0.00 | 100 | 1013.9 |
| 20260902101400 | 84 | 63 | 0.0 | 0.0 | 0.00 | 0.00 | 0.00 | 100 | 1013.9 |
| 20260902100900 | 84 | 63 | 0.0 | 0.0 | 0.00 | 0.00 | 0.00 | 100 | 1013.8 |
| 20260902100400 | 84 | 63 | 0.0 | 4.0 | 0.00 | 0.00 | 0.00 | 100 | 1013.8 |
| 20260902095900 | 84 | 127 | 0.0 | 0.0 | 0.00 | 0.00 | 0.00 | 100 | 1013.8 |
| 20260902095629 | 85 | 127 | 0.0 | 0.0 | 0.00 | 0.00 | 0.00 | 100 | 1013.8 |
| 20260902095400 | 85 | 127 | 0.0 | 0.0 | 0.00 | 0.00 | 0.00 | 100 | 1013.8 |
| 20260902094900 | 84 | 127 | 0.0 | 0.0 | 0.00 | 0.00 | 0.00 | 100 | 1013.8 |
| 20260902094715 | 84 | 127 | 0.0 | 0.0 | 0.00 | 0.00 | 0.00 | 100 | 1013.7 |
| 20260902094400 | 84 | 127 | 0.0 | 0.0 | 0.00 | 0.00 | 0.00 | 100 | 1013.7 |
| 20260902094129 | 84 | 127 | 0.0 | 0.0 | 0.00 | 0.00 | 0.00 | 100 | 1013.6 |
| 20260902094023 | 84 | 127 | 0.0 | 0.0 | 0.00 | 0.00 | 0.00 | 100 | 1013.6 |
| 20260902093900 | 84 | 127 | 0.0 | 0.0 | 0.00 | 0.00 | 0.00 | 100 | 1013.6 |
| 20260902093806 | 84 | 127 | 0.0 | 0.0 | 0.00 | 0.00 | 0.00 | 100 | 1013.5 |
| 20260902093612 | 91 | 347 | 8.0 | 8.0 | 0.00 | 0.00 | 0.00 | 100 | 1015.1 |
| 20260902093400 | 84 | 127 | 0.0 | 0.0 | 0.00 | 0.00 | 0.00 | 100 | 1013.5 |
| 20260902093110 | 84 | 127 | 0.0 | 2.0 | 0.00 | 0.00 | 0.00 | 100 | 1013.5 |
| 20260902092900 | 84 | 127 | 0.0 | 2.0 | 0.00 | 0.00 | 0.00 | 100 | 1013.5 |
| 20260902092400 | 84 | 98 | 0.0 | 2.0 | 0.00 | 0.00 | 0.00 | 100 | 1013.5 |
| 20260902092133 | 84 | 199 | 0.0 | 0.0 | 0.00 | 0.00 | 0.00 | 100 | 1013.6 |
| 20260902091900 | 84 | 199 | 0.0 | 0.0 | 0.00 | 0.00 | 0.00 | 100 | 1013.6 |
| 20260902091610 | 84 | 199 | 0.0 | 0.0 | 0.00 | 0.00 | 0.00 | 100 | 1013.5 |
| 20260902091400 | 84 | 199 | 0.0 | 0.0 | 0.00 | 0.00 | 0.00 | 100 | 1013.5 |
| 20260902090900 | 84 | 199 | 0.0 | 0.0 | 0.00 | 0.00 | 0.00 | 100 | 1013.4 |
| 20260902090627 | 84 | 199 | 0.0 | 0.0 | 0.00 | 0.00 | 0.00 | 100 | 1013.4 |
| 20260902090400 | 84 | 199 | 0.0 | 0.0 | 0.00 | 0.00 | 0.00 | 100 | 1013.4 |
| 20260902085908 | 84 | 199 | 0.0 | 0.0 | 0.00 | 0.00 | 0.00 | 100 | 1013.3 |
| 20260902085900 | 84 | 199 | 0.0 | 0.0 | 0.00 | 0.00 | 0.00 | 100 | 1013.3 |
| 20260902085400 | 84 | 199 | 0.0 | 0.0 | 0.00 | 0.00 | 0.00 | 100 | 1013.3 |
| 20260902085155 | 84 | 199 | 0.0 | 0.0 | 0.00 | 0.00 | 0.00 | 100 | 1013.3 |
| 20260902084900 | 84 | 199 | 0.0 | 0.0 | 0.00 | 0.00 | 0.00 | 100 | 1013.3 |
| 20260902084706 | 84 | 199 | 0.0 | 0.0 | 0.00 | 0.00 | 0.00 | 100 | 1013.2 |
| 20260902084400 | 84 | 199 | 0.0 | 0.0 | 0.00 | 0.00 | 0.00 | 100 | 1013.2 |
| 20260902083900 | 84 | 199 | 0.0 | 3.0 | 0.00 | 0.00 | 0.00 | 100 | 1013.2 |
| 20260902083400 | 85 | 84 | 0.0 | 0.0 | 0.00 | 0.00 | 0.00 | 100 | 1013.2 |
| 20260902083021 | 85 | 84 | 0.0 | 0.0 | 0.00 | 0.00 | 0.00 | 100 | 1013.1 |
| 20260902082900 | 85 | 84 | 0.0 | 0.0 | 0.00 | 0.00 | 0.00 | 100 | 1013.1 |
| 20260902082400 | 85 | 84 | 0.0 | 0.0 | 0.00 | 0.00 | 0.00 | 100 | 1013.2 |
| 20260902082136 | 85 | 84 | 0.0 | 0.0 | 0.00 | 0.00 | 0.00 | 100 | 1013.2 |
| 20260902081900 | 85 | 84 | 0.0 | 0.0 | 0.00 | 0.00 | 0.00 | 100 | 1013.2 |
| 20260902081629 | 85 | 84 | 0.0 | 0.0 | 0.00 | 0.00 | 0.00 | 100 | 1013.2 |
| 20260902081400 | 85 | 84 | 0.0 | 0.0 | 0.00 | 0.00 | 0.00 | 100 | 1013.2 |
| 20260902081216 | 85 | 84 | 0.0 | 0.0 | 0.00 | 0.00 | 0.00 | 100 | 1013.2 |
| 20260902080900 | 85 | 84 | 0.0 | 0.0 | 0.00 | 0.00 | 0.00 | 100 | 1013.2 |
| 20260902080703 | 85 | 84 | 0.0 | 0.0 | 0.00 | 0.00 | 0.00 | 100 | 1013.2 |
| 20260902080400 | 85 | 84 | 0.0 | 0.0 | 0.00 | 0.00 | 0.00 | 100 | 1013.2 |
| 20260902080200 | 85 | 84 | 0.0 | 0.0 | 0.00 | 0.00 | 0.00 | 100 | 1013.2 |
| 20260902075900 | 85 | 84 | 0.0 | 0.0 | 0.00 | 0.00 | 0.00 | 100 | 1013.2 |
| 20260902075400 | 85 | 84 | 0.0 | 0.0 | 0.00 | 0.00 | 0.00 | 100 | 1013.3 |
| 20260902074900 | 85 | 84 | 0.0 | 0.0 | 0.00 | 0.00 | 0.00 | 100 | 1013.4 |
| 20260902074631 | 85 | 84 | 0.0 | 0.0 | 0.00 | 0.00 | 0.00 | 100 | 1013.4 |
| 20260902074401 | 85 | 84 | 0.0 | 0.0 | 0.00 | 0.00 | 0.00 | 100 | 1013.4 |
| 20260902074217 | 85 | 84 | 0.0 | 0.0 | 0.00 | 0.00 | 0.00 | 100 | 1013.3 |
| 20260902073900 | 85 | 84 | 0.0 | 0.0 | 0.00 | 0.00 | 0.00 | 100 | 1013.3 |
| 20260902073702 | 85 | 84 | 0.0 | 0.0 | 0.00 | 0.00 | 0.00 | 100 | 1013.3 |
| 20260902073400 | 85 | 84 | 0.0 | 0.0 | 0.00 | 0.00 | 0.00 | 100 | 1013.3 |
| 20260902072900 | 85 | 84 | 0.0 | 0.0 | 0.00 | 0.00 | 0.00 | 100 | 1013.3 |
| 20260902072636 | 85 | 84 | 0.0 | 0.0 | 0.00 | 0.00 | 0.00 | 100 | 1013.4 |
| 20260902072400 | 85 | 84 | 0.0 | 0.0 | 0.00 | 0.00 | 0.00 | 100 | 1013.4 |
| 20260902072237 | 85 | 84 | 0.0 | 4.0 | 0.00 | 0.00 | 0.00 | 100 | 1013.4 |
| 20260902071900 | 85 | 84 | 0.0 | 4.0 | 0.00 | 0.00 | 0.00 | 100 | 1013.4 |
| 20260902071702 | 85 | 63 | 0.0 | 0.0 | 0.00 | 0.00 | 0.00 | 100 | 1013.4 |
| 20260902071400 | 85 | 63 | 0.0 | 0.0 | 0.00 | 0.00 | 0.00 | 100 | 1013.4 |
| 20260902070900 | 85 | 63 | 0.0 | 0.0 | 0.00 | 0.00 | 0.00 | 100 | 1013.5 |
| 20260902070706 | 85 | 63 | 0.0 | 0.0 | 0.00 | 0.00 | 0.00 | 100 | 1013.5 |
| 20260902070400 | 85 | 63 | 0.0 | 0.0 | 0.00 | 0.00 | 0.00 | 100 | 1013.5 |
| 20260902065901 | 85 | 63 | 0.0 | 1.0 | 0.00 | 0.00 | 0.00 | 100 | 1013.5 |
| 20260902065400 | 85 | 225 | 0.0 | 0.0 | 0.00 | 0.00 | 0.00 | 100 | 1013.5 |
| 20260902064900 | 85 | 225 | 0.0 | 0.0 | 0.00 | 0.00 | 0.00 | 100 | 1013.6 |
| 20260902064701 | 85 | 225 | 0.0 | 0.0 | 0.00 | 0.00 | 0.00 | 100 | 1013.6 |
| 20260902064400 | 85 | 225 | 0.0 | 0.0 | 0.00 | 0.00 | 0.00 | 100 | 1013.6 |
| 20260902064220 | 85 | 225 | 0.0 | 0.0 | 0.00 | 0.00 | 0.00 | 100 | 1013.6 |
| 20260902063900 | 85 | 225 | 0.0 | 0.0 | 0.00 | 0.00 | 0.00 | 100 | 1013.6 |
| 20260902063400 | 85 | 225 | 0.0 | 4.0 | 0.00 | 0.00 | 0.00 | 100 | 1013.6 |
| 20260902063312 | 85 | 39 | 0.0 | 0.0 | 0.00 | 0.00 | 0.00 | 100 | 1013.5 |
| 20260902062900 | 85 | 39 | 0.0 | 0.0 | 0.00 | 0.00 | 0.00 | 100 | 1013.5 |
| 20260902062701 | 85 | 39 | 0.0 | 0.0 | 0.00 | 0.00 | 0.00 | 100 | 1013.6 |
| 20260902062400 | 85 | 39 | 0.0 | 0.0 | 0.00 | 0.00 | 0.00 | 100 | 1013.6 |
| 20260902062306 | 85 | 39 | 0.0 | 0.0 | 0.00 | 0.00 | 0.00 | 100 | 1013.7 |
| 20260902061900 | 85 | 39 | 0.0 | 0.0 | 0.00 | 0.00 | 0.00 | 100 | 1013.7 |
| 20260902061634 | 85 | 39 | 0.0 | 0.0 | 0.00 | 0.00 | 0.00 | 100 | 1013.8 |
| 20260902061400 | 85 | 39 | 0.0 | 0.0 | 0.00 | 0.00 | 0.00 | 100 | 1013.8 |
| 20260902060900 | 85 | 39 | 0.0 | 0.0 | 0.00 | 0.00 | 0.00 | 100 | 1013.8 |
| 20260902060625 | 85 | 39 | 0.0 | 0.0 | 0.00 | 0.00 | 0.00 | 100 | 1013.8 |
| 20260902060400 | 85 | 39 | 0.0 | 0.0 | 0.00 | 0.00 | 0.00 | 100 | 1013.8 |
| 20260902060220 | 85 | 39 | 0.0 | 0.0 | 0.00 | 0.00 | 0.00 | 100 | 1013.8 |
| 20260902055900 | 85 | 39 | 0.0 | 0.0 | 0.00 | 0.00 | 0.00 | 100 | 1013.8 |
| 20260902055625 | 86 | 39 | 0.0 | 0.0 | 0.00 | 0.00 | 0.00 | 100 | 1013.8 |
| 20260902055400 | 86 | 39 | 0.0 | 0.0 | 0.00 | 0.00 | 0.00 | 100 | 1013.8 |
| 20260902054900 | 86 | 39 | 0.0 | 0.0 | 0.00 | 0.00 | 0.00 | 100 | 1013.9 |
| 20260902054703 | 86 | 39 | 0.0 | 0.0 | 0.00 | 0.00 | 0.00 | 100 | 1014.0 |
| 20260902054445 | 86 | 39 | 0.0 | 0.0 | 0.00 | 0.00 | 0.00 | 100 | 1014.0 |
| 20260902054400 | 86 | 39 | 0.0 | 0.0 | 0.00 | 0.00 | 0.00 | 100 | 1014.0 |
| 20260902053900 | 86 | 39 | 0.0 | 0.0 | 0.00 | 0.00 | 0.00 | 100 | 1014.0 |
| 20260902053633 | 86 | 39 | 0.0 | 0.0 | 0.00 | 0.00 | 0.00 | 100 | 1014.1 |
| 20260902053401 | 86 | 39 | 0.0 | 0.0 | 0.00 | 0.00 | 0.00 | 100 | 1014.1 |
| 20260902052900 | 86 | 39 | 0.0 | 0.0 | 0.00 | 0.00 | 0.00 | 100 | 1014.2 |
| 20260902052627 | 86 | 39 | 0.0 | 5.0 | 0.00 | 0.00 | 0.00 | 100 | 1014.2 |
| 20260902052400 | 86 | 39 | 0.0 | 5.0 | 0.00 | 0.00 | 0.00 | 100 | 1014.2 |
| 20260902051900 | 86 | 29 | 0.0 | 0.0 | 0.00 | 0.00 | 0.00 | 100 | 1014.1 |
| 20260902051623 | 86 | 29 | 0.0 | 2.0 | 0.00 | 0.00 | 0.00 | 100 | 1014.1 |
| 20260902051400 | 86 | 29 | 0.0 | 2.0 | 0.00 | 0.00 | 0.00 | 100 | 1014.1 |
| 20260902050901 | 86 | 161 | 0.0 | 3.0 | 0.00 | 0.00 | 0.00 | 100 | 1014.2 |
| 20260902050704 | 86 | 57 | 0.0 | 0.0 | 0.00 | 0.00 | 0.00 | 100 | 1014.2 |
| 20260902050400 | 86 | 57 | 0.0 | 0.0 | 0.00 | 0.00 | 0.00 | 100 | 1014.2 |
| 20260902045900 | 86 | 57 | 0.0 | 0.0 | 0.00 | 0.00 | 0.00 | 100 | 1014.2 |
| 20260902045706 | 86 | 57 | 0.0 | 0.0 | 0.00 | 0.00 | 0.00 | 100 | 1014.2 |
| 20260902045400 | 86 | 57 | 0.0 | 0.0 | 0.00 | 0.00 | 0.00 | 100 | 1014.2 |
| 20260902045128 | 86 | 57 | 0.0 | 2.0 | 0.00 | 0.00 | 0.00 | 100 | 1014.1 |
| 20260902044900 | 86 | 57 | 0.0 | 2.0 | 0.00 | 0.00 | 0.00 | 100 | 1014.1 |
| 20260902044644 | 86 | 23 | 0.0 | 2.0 | 0.00 | 0.00 | 0.00 | 100 | 1014.3 |
| 20260902044401 | 86 | 23 | 0.0 | 2.0 | 0.00 | 0.00 | 0.00 | 100 | 1014.3 |
| 20260902043901 | 86 | 68 | 0.0 | 4.0 | 0.00 | 0.00 | 0.00 | 100 | 1014.3 |
| 20260902043549 | 86 | 198 | 0.0 | 3.0 | 0.00 | 0.00 | 0.00 | 100 | 1014.3 |
| 20260902043401 | 86 | 198 | 0.0 | 3.0 | 0.00 | 0.00 | 0.00 | 100 | 1014.3 |
| 20260902042901 | 86 | 39 | 0.0 | 4.0 | 0.00 | 0.00 | 0.00 | 100 | 1014.4 |
| 20260902042401 | 86 | 165 | 0.0 | 0.0 | 0.00 | 0.00 | 0.00 | 100 | 1014.4 |
| 20260902041940 | 86 | 84 | 1.0 | 3.0 | 0.00 | 0.00 | 0.00 | 100 | 1014.5 |
| 20260902041901 | 86 | 165 | 0.0 | 1.0 | 0.00 | 0.00 | 0.00 | 100 | 1014.5 |
| 20260902041713 | 86 | 84 | 1.0 | 3.0 | 0.00 | 0.00 | 0.00 | 100 | 1014.5 |
| 20260902041401 | 86 | 84 | 1.0 | 3.0 | 0.00 | 0.00 | 0.00 | 100 | 1014.5 |
| 20260902040901 | 87 | 80 | 1.0 | 2.0 | 0.00 | 0.00 | 0.00 | 100 | 1014.6 |
| 20260902040713 | 87 | 70 | 0.0 | 5.0 | 0.00 | 0.00 | 0.00 | 100 | 1014.5 |
| 20260902040401 | 87 | 70 | 0.0 | 5.0 | 0.00 | 0.00 | 0.00 | 100 | 1014.5 |
| 20260902035901 | 87 | 84 | 0.0 | 3.0 | 0.00 | 0.00 | 0.00 | 100 | 1014.5 |
| 20260902035717 | 87 | 26 | 0.0 | 4.0 | 0.00 | 0.00 | 0.00 | 100 | 1014.6 |
| 20260902035401 | 87 | 26 | 0.0 | 4.0 | 0.00 | 0.00 | 0.00 | 100 | 1014.6 |
| 20260902034901 | 87 | 248 | 0.0 | 4.0 | 0.00 | 0.00 | 0.00 | 100 | 1014.6 |
| 20260902034401 | 87 | 49 | 0.0 | 0.0 | 0.00 | 0.00 | 0.00 | 100 | 1014.6 |
| 20260902033901 | 87 | 49 | 0.0 | 3.0 | 0.00 | 0.00 | 0.00 | 100 | 1014.7 |
| 20260902033817 | 87 | 60 | 2.0 | 2.0 | 0.00 | 0.00 | 0.00 | 100 | 1014.8 |
| 20260902033401 | 87 | 60 | 2.0 | 2.0 | 0.00 | 0.00 | 0.00 | 100 | 1014.8 |
| 20260902032901 | 87 | 115 | 0.0 | 3.0 | 0.00 | 0.00 | 0.00 | 100 | 1014.9 |
| 20260902032707 | 87 | 71 | 3.0 | 5.0 | 0.00 | 0.00 | 0.00 | 100 | 1014.9 |
| 20260902032401 | 87 | 71 | 3.0 | 5.0 | 0.00 | 0.00 | 0.00 | 100 | 1014.9 |
| 20260902031901 | 87 | 116 | 0.0 | 0.0 | 0.00 | 0.00 | 0.00 | 100 | 1014.9 |
| 20260902031555 | 87 | 116 | 0.0 | 4.0 | 0.00 | 0.00 | 0.00 | 100 | 1015.0 |
| 20260902031401 | 87 | 116 | 0.0 | 4.0 | 0.00 | 0.00 | 0.00 | 100 | 1015.0 |
| 20260902030901 | 87 | 189 | 0.0 | 4.0 | 0.00 | 0.00 | 0.00 | 100 | 1014.9 |
| 20260902030401 | 87 | 28 | 0.0 | 3.0 | 0.00 | 0.00 | 0.00 | 100 | 1014.9 |
| 20260902025901 | 87 | 77 | 0.0 | 2.0 | 0.00 | 0.00 | 0.00 | 100 | 1014.9 |
| 20260902025700 | 87 | 101 | 0.0 | 0.0 | 0.00 | 0.00 | 0.00 | 100 | 1014.8 |
| 20260902025401 | 87 | 101 | 0.0 | 0.0 | 0.00 | 0.00 | 0.00 | 100 | 1014.8 |
| 20260902024901 | 87 | 101 | 0.0 | 3.0 | 0.00 | 0.00 | 0.00 | 100 | 1014.8 |
| 20260902024401 | 87 | 80 | 0.0 | 4.0 | 0.00 | 0.00 | 0.00 | 100 | 1014.8 |
| 20260902023901 | 87 | 81 | 0.0 | 4.0 | 0.00 | 0.00 | 0.00 | 100 | 1014.9 |
| 20260902023738 | 87 | 88 | 0.0 | 0.0 | 0.00 | 0.00 | 0.00 | 100 | 1014.9 |
| 20260902023401 | 87 | 88 | 0.0 | 0.0 | 0.00 | 0.00 | 0.00 | 100 | 1014.9 |
| 20260902022901 | 87 | 88 | 0.0 | 4.0 | 0.00 | 0.00 | 0.00 | 100 | 1014.9 |
| 20260902022658 | 87 | 151 | 0.0 | 0.0 | 0.00 | 0.00 | 0.00 | 100 | 1014.9 |
| 20260902022401 | 87 | 151 | 0.0 | 0.0 | 0.00 | 0.00 | 0.00 | 100 | 1014.9 |
| 20260902022239 | 87 | 151 | 0.0 | 0.0 | 0.00 | 0.00 | 0.00 | 100 | 1014.8 |
| 20260902021901 | 87 | 151 | 0.0 | 0.0 | 0.00 | 0.00 | 0.00 | 100 | 1014.8 |
| 20260902021731 | 87 | 151 | 0.0 | 0.0 | 0.00 | 0.00 | 0.00 | 100 | 1014.7 |
| 20260902021401 | 87 | 151 | 0.0 | 0.0 | 0.00 | 0.00 | 0.00 | 100 | 1014.7 |
| 20260902020901 | 87 | 151 | 0.0 | 2.0 | 0.00 | 0.00 | 0.00 | 100 | 1014.6 |
| 20260902020709 | 87 | 118 | 0.0 | 0.0 | 0.00 | 0.00 | 0.00 | 100 | 1014.6 |
| 20260902020401 | 87 | 118 | 0.0 | 0.0 | 0.00 | 0.00 | 0.00 | 100 | 1014.6 |
| 20260902020310 | 87 | 118 | 0.0 | 0.0 | 0.00 | 0.00 | 0.00 | 100 | 1014.6 |
| 20260902015901 | 87 | 118 | 0.0 | 0.0 | 0.00 | 0.00 | 0.00 | 100 | 1014.6 |
| 20260902015401 | 87 | 118 | 0.0 | 0.0 | 0.00 | 0.00 | 0.00 | 100 | 1014.6 |
| 20260902014933 | 87 | 118 | 0.0 | 0.0 | 0.00 | 0.00 | 0.00 | 100 | 1014.5 |
| 20260902014901 | 87 | 118 | 0.0 | 0.0 | 0.00 | 0.00 | 0.00 | 100 | 1014.6 |
| 20260902014401 | 87 | 118 | 0.0 | 0.0 | 0.00 | 0.00 | 0.00 | 100 | 1014.5 |
| 20260902014208 | 87 | 118 | 0.0 | 0.0 | 0.00 | 0.00 | 0.00 | 100 | 1014.4 |
| 20260902013901 | 87 | 118 | 0.0 | 0.0 | 0.00 | 0.00 | 0.00 | 100 | 1014.4 |
| 20260902013815 | 87 | 118 | 0.0 | 2.0 | 0.00 | 0.00 | 0.00 | 100 | 1014.4 |
| 20260902013401 | 87 | 118 | 0.0 | 2.0 | 0.00 | 0.00 | 0.00 | 100 | 1014.4 |
| 20260902012901 | 87 | 9 | 0.0 | 0.0 | 0.00 | 0.00 | 0.00 | 100 | 1014.3 |
| 20260902012401 | 87 | 9 | 0.0 | 1.0 | 0.00 | 0.00 | 0.00 | 100 | 1014.4 |
| 20260902012311 | 87 | 61 | 0.0 | 1.0 | 0.00 | 0.00 | 0.00 | 100 | 1014.2 |
| 20260902011901 | 87 | 61 | 0.0 | 1.0 | 0.00 | 0.00 | 0.00 | 100 | 1014.2 |
| 20260902011401 | 87 | 78 | 1.0 | 2.0 | 0.00 | 0.00 | 0.00 | 100 | 1014.2 |
| 20260902011139 | 87 | 213 | 0.0 | 0.0 | 0.00 | 0.00 | 0.00 | 100 | 1014.1 |
| 20260902010901 | 87 | 213 | 0.0 | 0.0 | 0.00 | 0.00 | 0.00 | 100 | 1014.1 |
| 20260902010633 | 87 | 213 | 0.0 | 0.0 | 0.00 | 0.00 | 0.00 | 100 | 1014.1 |
| 20260902010401 | 87 | 213 | 0.0 | 0.0 | 0.00 | 0.00 | 0.00 | 100 | 1014.1 |
| 20260902005901 | 87 | 213 | 0.0 | 0.0 | 0.00 | 0.00 | 0.00 | 100 | 1014.1 |
| 20260902005656 | 87 | 213 | 0.0 | 4.0 | 0.00 | 0.00 | 0.00 | 100 | 1013.1 |
| 20260902005401 | 87 | 213 | 0.0 | 4.0 | 0.00 | 0.00 | 0.00 | 100 | 1013.1 |
| 20260902004901 | 88 | 153 | 0.0 | 0.0 | 0.00 | 0.00 | 0.00 | 100 | 1013.0 |
| 20260902004401 | 88 | 153 | 0.0 | 0.0 | 0.00 | 0.00 | 0.00 | 100 | 1013.0 |
| 20260902003901 | 88 | 153 | 0.0 | 0.0 | 0.00 | 0.00 | 0.00 | 100 | 1012.8 |
| 20260902003401 | 88 | 153 | 0.0 | 0.0 | 0.00 | 0.00 | 0.00 | 100 | 1013.1 |
| 20260902002901 | 88 | 153 | 0.0 | 0.0 | 0.00 | 0.00 | 0.00 | 100 | 1013.7 |
| 20260902002401 | 88 | 153 | 0.0 | 2.0 | 0.00 | 0.00 | 0.00 | 100 | 1014.1 |
| 20260902001901 | 88 | 153 | 0.0 | 2.0 | 0.00 | 0.00 | 0.00 | 100 | 1014.1 |
| 20260902001423 | 88 | 37 | 0.0 | 2.0 | 0.00 | 0.00 | 0.00 | 100 | 1014.0 |
| 20260902001401 | 88 | 37 | 0.0 | 0.0 | 0.00 | 0.00 | 0.00 | 100 | 1014.1 |
| 20260902000901 | 88 | 37 | 0.0 | 2.0 | 0.00 | 0.00 | 0.00 | 100 | 1014.0 |
| 20260902000401 | 88 | 105 | 0.0 | 2.0 | 0.00 | 0.00 | 0.00 | 100 | 1014.0 |
| 20260901235901 | 89 | 143 | 0.0 | 3.0 | 0.00 | 0.00 | 0.00 | 100 | 1013.0 |
| 20260901235401 | 89 | 132 | 0.0 | 1.0 | 0.00 | 0.00 | 0.00 | 100 | 1013.0 |
| 20260901234901 | 89 | 140 | 0.0 | 1.0 | 0.00 | 0.00 | 0.00 | 100 | 1012.7 |
| 20260901234401 | 89 | 267 | 0.0 | 2.0 | 0.00 | 0.00 | 0.00 | 100 | 1012.8 |
| 20260901233901 | 89 | 158 | 2.0 | 2.0 | 0.00 | 0.00 | 0.00 | 100 | 1013.1 |
| 20260901233540 | 89 | 150 | 0.0 | 0.0 | 0.00 | 0.00 | 0.00 | 100 | 1012.8 |
| 20260901233401 | 89 | 150 | 0.0 | 0.0 | 0.00 | 0.00 | 0.00 | 100 | 1012.8 |
| 20260901232901 | 89 | 150 | 0.0 | 3.0 | 0.00 | 0.00 | 0.00 | 100 | 1013.8 |
| 20260901232401 | 89 | 56 | 0.0 | 3.0 | 0.00 | 0.00 | 0.00 | 100 | 1013.1 |
| 20260901231901 | 89 | 127 | 0.0 | 4.0 | 0.00 | 0.00 | 0.00 | 100 | 1013.8 |
| 20260901231623 | 89 | 160 | 0.0 | 4.0 | 0.00 | 0.00 | 0.00 | 100 | 1013.8 |
| 20260901231401 | 89 | 160 | 0.0 | 4.0 | 0.00 | 0.00 | 0.00 | 100 | 1013.8 |
| 20260901230901 | 89 | 182 | 3.0 | 5.0 | 0.00 | 0.00 | 0.00 | 100 | 1013.8 |
| 20260901230401 | 88 | 120 | 1.0 | 5.0 | 0.00 | 0.00 | 0.00 | 100 | 1013.9 |
| 20260901225901 | 88 | 115 | 2.0 | 6.0 | 0.00 | 0.00 | 0.00 | 100 | 1013.8 |
| 20260901225401 | 88 | 219 | 1.0 | 6.0 | 0.00 | 0.00 | 0.00 | 100 | 1013.7 |
| 20260901224901 | 88 | 151 | 1.0 | 7.0 | 0.00 | 0.00 | 0.00 | 100 | 1013.5 |
| 20260901224704 | 88 | 82 | 3.0 | 6.0 | 0.00 | 0.00 | 0.00 | 100 | 1013.9 |
| 20260901224401 | 88 | 82 | 3.0 | 6.0 | 0.00 | 0.00 | 0.00 | 100 | 1013.9 |
| 20260901223901 | 88 | 119 | 2.0 | 6.0 | 0.00 | 0.00 | 0.00 | 100 | 1013.5 |
| 20260901223401 | 88 | 119 | 1.0 | 8.0 | 0.00 | 0.00 | 0.00 | 100 | 1013.4 |
| 20260901222901 | 88 | 153 | 3.0 | 5.0 | 0.00 | 0.00 | 0.00 | 100 | 1013.8 |
| 20260901222713 | 89 | 192 | 0.0 | 7.0 | 0.00 | 0.00 | 0.00 | 100 | 1013.8 |
| 20260901222401 | 89 | 192 | 0.0 | 7.0 | 0.00 | 0.00 | 0.00 | 100 | 1013.8 |
| 20260901221901 | 89 | 187 | 5.0 | 5.0 | 0.00 | 0.00 | 0.00 | 100 | 1013.7 |
| 20260901221714 | 89 | 223 | 1.0 | 7.0 | 0.00 | 0.00 | 0.00 | 100 | 1013.6 |
| 20260901221401 | 89 | 223 | 1.0 | 7.0 | 0.00 | 0.00 | 0.00 | 100 | 1013.6 |
| 20260901220901 | 89 | 219 | 2.0 | 5.0 | 0.00 | 0.00 | 0.00 | 100 | 1013.5 |
| 20260901220659 | 89 | 174 | 2.0 | 8.0 | 0.00 | 0.00 | 0.00 | 100 | 1013.7 |
| 20260901220401 | 89 | 174 | 2.0 | 8.0 | 0.00 | 0.00 | 0.00 | 100 | 1013.7 |
| 20260901215901 | 89 | 140 | 3.0 | 9.0 | 0.00 | 0.00 | 0.00 | 100 | 1012.7 |
| 20260901215720 | 90 | 306 | 0.0 | 10.0 | 0.00 | 0.00 | 0.00 | 100 | 1013.4 |
| 20260901215401 | 90 | 306 | 0.0 | 10.0 | 0.00 | 0.00 | 0.00 | 100 | 1013.4 |
| 20260901214901 | 90 | 208 | 1.0 | 6.0 | 0.00 | 0.00 | 0.00 | 100 | 1013.5 |
| 20260901214807 | 91 | 279 | 0.0 | 7.0 | 0.00 | 0.00 | 0.00 | 100 | 1013.5 |
| 20260901214401 | 91 | 279 | 0.0 | 7.0 | 0.00 | 0.00 | 0.00 | 100 | 1013.5 |
| 20260901213901 | 92 | 64 | 5.0 | 10.0 | 0.00 | 0.00 | 0.00 | 100 | 1013.6 |
| 20260901213719 | 94 | 75 | 6.0 | 12.0 | 0.00 | 0.00 | 0.00 | 100 | 1013.5 |
| 20260901213401 | 94 | 75 | 6.0 | 12.0 | 0.00 | 0.00 | 0.00 | 100 | 1013.5 |
| 20260901212901 | 94 | 33 | 4.0 | 12.0 | 0.00 | 0.00 | 0.00 | 100 | 1013.2 |
| 20260901212401 | 93 | 25 | 2.0 | 12.0 | 0.00 | 0.00 | 0.00 | 100 | 1011.1 |
| 20260901211901 | 93 | 46 | 5.0 | 17.0 | 0.00 | 0.00 | 0.00 | 100 | 1012.5 |
| 20260901211401 | 92 | 14 | 8.0 | 15.0 | 0.00 | 0.00 | 0.00 | 100 | 1012.2 |
| 20260901210901 | 92 | 11 | 11.0 | 17.0 | 0.00 | 0.00 | 0.00 | 100 | 1013.0 |
| 20260901210401 | 93 | 4 | 12.0 | 16.0 | 0.00 | 0.00 | 0.00 | 100 | 1012.9 |
| 20260901205901 | 93 | 343 | 8.0 | 13.0 | 0.00 | 0.00 | 0.00 | 100 | 1012.9 |
| 20260901205600 | 92 | 32 | 7.0 | 13.0 | 0.00 | 0.00 | 0.00 | 100 | 1012.7 |
| 20260901205402 | 92 | 32 | 7.0 | 13.0 | 0.00 | 0.00 | 0.00 | 100 | 1012.7 |
| 20260901204901 | 92 | 18 | 2.0 | 14.0 | 0.00 | 0.00 | 0.00 | 100 | 1012.5 |
| 20260901204612 | 93 | 11 | 7.0 | 11.0 | 0.00 | 0.00 | 0.00 | 100 | 1012.7 |
| 20260901204401 | 93 | 11 | 7.0 | 11.0 | 0.00 | 0.00 | 0.00 | 100 | 1012.7 |
| 20260901203901 | 93 | 358 | 3.0 | 12.0 | 0.00 | 0.00 | 0.00 | 100 | 1012.6 |
| 20260901203700 | 93 | 358 | 8.0 | 12.0 | 0.00 | 0.00 | 0.00 | 100 | 1012.6 |
| 20260901203515 | 93 | 358 | 8.0 | 12.0 | 0.00 | 0.00 | 0.00 | 100 | 1012.6 |
| 20260901203401 | 93 | 358 | 8.0 | 12.0 | 0.00 | 0.00 | 0.00 | 100 | 1012.6 |
| 20260901203059 | 92 | 61 | 5.0 | 11.0 | 0.00 | 0.00 | 0.00 | 100 | 1012.7 |
| 20260901202901 | 92 | 61 | 5.0 | 11.0 | 0.00 | 0.00 | 0.00 | 100 | 1012.7 |
| 20260901202401 | 92 | 347 | 9.0 | 15.0 | 0.00 | 0.00 | 0.00 | 100 | 1012.7 |
| 20260901201901 | 92 | 33 | 7.0 | 13.0 | 0.00 | 0.00 | 0.00 | 100 | 1012.7 |
| 20260901201401 | 92 | 53 | 8.0 | 12.0 | 0.00 | 0.00 | 0.00 | 100 | 1012.7 |
| 20260901200901 | 92 | 358 | 8.0 | 11.0 | 0.00 | 0.00 | 0.00 | 100 | 1012.8 |
| 20260901200604 | 92 | 43 | 6.0 | 13.0 | 0.00 | 0.00 | 0.00 | 100 | 1012.9 |
| 20260901200401 | 92 | 43 | 6.0 | 13.0 | 0.00 | 0.00 | 0.00 | 100 | 1012.9 |
| 20260901195901 | 92 | 14 | 8.0 | 11.0 | 0.00 | 0.00 | 0.00 | 100 | 1013.0 |
| 20260901195401 | 92 | 16 | 7.0 | 11.0 | 0.00 | 0.00 | 0.00 | 100 | 1013.0 |
| 20260901194901 | 92 | 36 | 7.0 | 13.0 | 0.00 | 0.00 | 0.00 | 100 | 1013.1 |
| 20260901194456 | 92 | 4 | 8.0 | 14.0 | 0.00 | 0.00 | 0.00 | 100 | 1013.1 |
| 20260901194401 | 92 | 347 | 9.0 | 12.0 | 0.00 | 0.00 | 0.00 | 100 | 1013.1 |
| 20260901193901 | 92 | 4 | 8.0 | 14.0 | 0.00 | 0.00 | 0.00 | 100 | 1013.1 |
| 20260901193401 | 91 | 5 | 7.0 | 17.0 | 0.00 | 0.00 | 0.00 | 100 | 1013.3 |
| 20260901193114 | 92 | 26 | 10.0 | 13.0 | 0.00 | 0.00 | 0.00 | 100 | 1013.3 |
| 20260901192901 | 92 | 26 | 10.0 | 13.0 | 0.00 | 0.00 | 0.00 | 100 | 1013.3 |
| 20260901192605 | 92 | 11 | 9.0 | 13.0 | 0.00 | 0.00 | 0.00 | 100 | 1013.4 |
| 20260901192401 | 92 | 11 | 9.0 | 13.0 | 0.00 | 0.00 | 0.00 | 100 | 1013.4 |
| 20260901191901 | 92 | 25 | 7.0 | 12.0 | 0.00 | 0.00 | 0.00 | 100 | 1013.5 |
| 20260901191540 | 92 | 358 | 5.0 | 11.0 | 0.00 | 0.00 | 0.00 | 100 | 1013.5 |
| 20260901191401 | 92 | 358 | 5.0 | 11.0 | 0.00 | 0.00 | 0.00 | 100 | 1013.5 |
| 20260901190901 | 92 | 11 | 8.0 | 12.0 | 0.00 | 0.00 | 0.00 | 100 | 1013.6 |
| 20260901190627 | 92 | 14 | 6.0 | 12.0 | 0.00 | 0.00 | 0.00 | 100 | 1013.6 |
| 20260901190401 | 92 | 14 | 6.0 | 12.0 | 0.00 | 0.00 | 0.00 | 100 | 1013.6 |
| 20260901185901 | 92 | 1 | 9.0 | 12.0 | 0.00 | 0.00 | 0.00 | 100 | 1013.6 |
| 20260901185627 | 92 | 351 | 6.0 | 13.0 | 0.00 | 0.00 | 0.00 | 100 | 1013.7 |
| 20260901185401 | 92 | 351 | 6.0 | 13.0 | 0.00 | 0.00 | 0.00 | 100 | 1013.7 |
| 20260901184902 | 92 | 49 | 4.0 | 12.0 | 0.00 | 0.00 | 0.00 | 100 | 1013.8 |
| 20260901184700 | 92 | 54 | 7.0 | 14.0 | 0.00 | 0.00 | 0.00 | 100 | 1013.9 |
| 20260901184401 | 92 | 54 | 7.0 | 14.0 | 0.00 | 0.00 | 0.00 | 100 | 1013.9 |
| 20260901183901 | 92 | 355 | 12.0 | 13.0 | 0.00 | 0.00 | 0.00 | 100 | 1013.9 |
| 20260901183643 | 92 | 46 | 7.0 | 14.0 | 0.00 | 0.00 | 0.00 | 100 | 1014.0 |
| 20260901183401 | 92 | 46 | 7.0 | 14.0 | 0.00 | 0.00 | 0.00 | 100 | 1014.0 |
| 20260901183127 | 92 | 344 | 12.0 | 16.0 | 0.00 | 0.00 | 0.00 | 100 | 1014.1 |
| 20260901182901 | 92 | 344 | 12.0 | 16.0 | 0.00 | 0.00 | 0.00 | 100 | 1014.1 |
| 20260901182401 | 92 | 19 | 7.0 | 14.0 | 0.00 | 0.00 | 0.00 | 100 | 1014.3 |
| 20260901181901 | 91 | 350 | 13.0 | 13.0 | 0.00 | 0.00 | 0.00 | 100 | 1014.4 |
| 20260901181401 | 91 | 22 | 7.0 | 15.0 | 0.00 | 0.00 | 0.00 | 100 | 1014.5 |
| 20260901181132 | 92 | 315 | 9.0 | 13.0 | 0.00 | 0.00 | 0.00 | 100 | 1014.5 |
| 20260901180901 | 92 | 315 | 9.0 | 13.0 | 0.00 | 0.00 | 0.00 | 100 | 1014.5 |
| 20260901180401 | 92 | 8 | 2.0 | 14.0 | 0.00 | 0.00 | 0.00 | 100 | 1014.6 |
| 20260901180113 | 91 | 33 | 8.0 | 12.0 | 0.00 | 0.00 | 0.00 | 100 | 1013.3 |
| 20260901175901 | 91 | 33 | 8.0 | 12.0 | 0.00 | 0.00 | 0.00 | 100 | 1013.3 |
| 20260901175704 | 91 | 37 | 6.0 | 13.0 | 0.00 | 0.00 | 0.00 | 100 | 1014.6 |
| 20260901175401 | 91 | 37 | 6.0 | 13.0 | 0.00 | 0.00 | 0.00 | 100 | 1014.6 |
| 20260901174901 | 91 | 358 | 9.0 | 15.0 | 0.00 | 0.00 | 0.00 | 100 | 1014.7 |
| 20260901174716 | 92 | 35 | 10.0 | 14.0 | 0.00 | 0.00 | 0.00 | 100 | 1014.7 |
| 20260901174401 | 92 | 35 | 10.0 | 14.0 | 0.00 | 0.00 | 0.00 | 100 | 1014.7 |
| 20260901173901 | 91 | 21 | 8.0 | 11.0 | 0.00 | 0.00 | 0.00 | 100 | 1014.6 |
| 20260901173750 | 92 | 357 | 2.0 | 11.0 | 0.00 | 0.00 | 0.00 | 100 | 1014.7 |
| 20260901173402 | 92 | 357 | 2.0 | 11.0 | 0.00 | 0.00 | 0.00 | 100 | 1014.7 |
| 20260901172901 | 92 | 19 | 10.0 | 10.0 | 0.00 | 0.00 | 0.00 | 100 | 1014.7 |
| 20260901172631 | 91 | 303 | 8.0 | 11.0 | 0.00 | 0.00 | 0.00 | 100 | 1014.7 |
| 20260901172402 | 91 | 303 | 8.0 | 11.0 | 0.00 | 0.00 | 0.00 | 100 | 1014.7 |
| 20260901171902 | 91 | 5 | 7.0 | 12.0 | 0.00 | 0.00 | 0.00 | 100 | 1014.8 |
| 20260901171402 | 91 | 358 | 8.0 | 12.0 | 0.00 | 0.00 | 0.00 | 100 | 1014.8 |
| 20260901170901 | 90 | 81 | 5.0 | 13.0 | 0.00 | 0.00 | 0.00 | 100 | 1015.0 |
| 20260901170705 | 91 | 2 | 9.0 | 12.0 | 0.00 | 0.00 | 0.00 | 100 | 1015.0 |
| 20260901170401 | 91 | 2 | 9.0 | 12.0 | 0.00 | 0.00 | 0.00 | 100 | 1015.0 |
| 20260901170120 | 91 | 40 | 6.0 | 12.0 | 0.00 | 0.00 | 0.00 | 100 | 1015.1 |
| 20260901165902 | 91 | 40 | 6.0 | 12.0 | 0.00 | 0.00 | 0.00 | 100 | 1015.1 |
| 20260901165402 | 91 | 331 | 8.0 | 12.0 | 0.00 | 0.00 | 0.00 | 100 | 1015.1 |
| 20260901165201 | 91 | 35 | 5.0 | 10.0 | 0.00 | 0.00 | 0.00 | 100 | 1015.3 |
| 20260901164902 | 91 | 35 | 5.0 | 10.0 | 0.00 | 0.00 | 0.00 | 100 | 1015.3 |
| 20260901164805 | 91 | 56 | 3.0 | 10.0 | 0.00 | 0.00 | 0.00 | 100 | 1015.3 |
| 20260901164402 | 91 | 56 | 3.0 | 10.0 | 0.00 | 0.00 | 0.00 | 100 | 1015.3 |
| 20260901164145 | 91 | 344 | 7.0 | 10.0 | 0.00 | 0.00 | 0.00 | 100 | 1015.4 |
| 20260901163902 | 91 | 344 | 7.0 | 10.0 | 0.00 | 0.00 | 0.00 | 100 | 1015.4 |
| 20260901163629 | 91 | 4 | 5.0 | 9.0 | 0.00 | 0.00 | 0.00 | 100 | 1015.5 |
| 20260901163402 | 91 | 4 | 5.0 | 9.0 | 0.00 | 0.00 | 0.00 | 100 | 1015.5 |
| 20260901162902 | 92 | 43 | 5.0 | 10.0 | 0.00 | 0.00 | 0.00 | 100 | 1015.5 |
| 20260901162402 | 92 | 21 | 6.0 | 11.0 | 0.00 | 0.00 | 0.00 | 100 | 1015.6 |
| 20260901161902 | 93 | 30 | 4.0 | 8.0 | 0.00 | 0.00 | 0.00 | 100 | 1015.6 |
| 20260901161605 | 94 | 115 | 4.0 | 6.0 | 0.00 | 0.00 | 0.00 | 100 | 1015.6 |
| 20260901161402 | 94 | 115 | 4.0 | 6.0 | 0.00 | 0.00 | 0.00 | 100 | 1015.6 |
| 20260901161102 | 94 | 29 | 0.0 | 3.0 | 0.00 | 0.00 | 0.00 | 100 | 1015.6 |
| 20260901160902 | 94 | 29 | 0.0 | 3.0 | 0.00 | 0.00 | 0.00 | 100 | 1015.6 |
| 20260901160645 | 93 | 104 | 0.0 | 6.0 | 0.00 | 0.00 | 0.00 | 100 | 1015.7 |
| 20260901160402 | 93 | 104 | 0.0 | 6.0 | 0.00 | 0.00 | 0.00 | 100 | 1015.7 |
| 20260901160122 | 94 | 94 | 4.0 | 7.0 | 0.00 | 0.00 | 0.00 | 100 | 1015.7 |
| 20260901155902 | 94 | 94 | 4.0 | 7.0 | 0.00 | 0.00 | 0.00 | 100 | 1015.7 |
| 20260901155744 | 93 | 87 | 3.0 | 5.0 | 0.00 | 0.00 | 0.00 | 100 | 1015.8 |
| 20260901155402 | 93 | 87 | 3.0 | 5.0 | 0.00 | 0.00 | 0.00 | 100 | 1015.8 |
| 20260901155154 | 93 | 127 | 0.0 | 4.0 | 0.00 | 0.00 | 0.00 | 100 | 1015.8 |
| 20260901154902 | 93 | 127 | 0.0 | 4.0 | 0.00 | 0.00 | 0.00 | 100 | 1015.8 |
| 20260901154402 | 92 | 66 | 2.0 | 6.0 | 0.00 | 0.00 | 0.00 | 100 | 1015.8 |
| 20260901154242 | 92 | 129 | 3.0 | 6.0 | 0.00 | 0.00 | 0.00 | 100 | 1015.9 |
| 20260901153902 | 92 | 129 | 3.0 | 6.0 | 0.00 | 0.00 | 0.00 | 100 | 1015.9 |
| 20260901153402 | 92 | 189 | 0.0 | 5.0 | 0.00 | 0.00 | 0.00 | 100 | 1015.9 |
| 20260901152902 | 93 | 157 | 2.0 | 5.0 | 0.00 | 0.00 | 0.00 | 100 | 1015.9 |
| 20260901152709 | 92 | 191 | 0.0 | 4.0 | 0.00 | 0.00 | 0.00 | 100 | 1015.9 |
| 20260901152402 | 92 | 191 | 0.0 | 4.0 | 0.00 | 0.00 | 0.00 | 100 | 1015.9 |
| 20260901152210 | 92 | 199 | 0.0 | 4.0 | 0.00 | 0.00 | 0.00 | 100 | 1015.9 |
| 20260901151902 | 92 | 199 | 0.0 | 4.0 | 0.00 | 0.00 | 0.00 | 100 | 1015.9 |
| 20260901151717 | 92 | 136 | 2.0 | 5.0 | 0.00 | 0.00 | 0.00 | 100 | 1015.9 |
| 20260901151402 | 92 | 136 | 2.0 | 5.0 | 0.00 | 0.00 | 0.00 | 100 | 1015.9 |
| 20260901150902 | 92 | 188 | 0.0 | 6.0 | 0.00 | 0.00 | 0.00 | 100 | 1015.9 |
| 20260901150604 | 92 | 111 | 0.0 | 2.0 | 0.00 | 0.00 | 0.00 | 100 | 1015.1 |
| 20260901150402 | 92 | 111 | 0.0 | 2.0 | 0.00 | 0.00 | 0.00 | 100 | 1015.1 |
| 20260901145902 | 92 | 195 | 0.0 | 6.0 | 0.00 | 0.00 | 0.00 | 100 | 1015.8 |
| 20260901145402 | 92 | 203 | 0.0 | 2.0 | 0.00 | 0.00 | 0.00 | 100 | 1015.7 |
| 20260901145244 | 91 | 146 | 1.0 | 3.0 | 0.00 | 0.00 | 0.00 | 100 | 1015.6 |
| 20260901144902 | 91 | 146 | 1.0 | 3.0 | 0.00 | 0.00 | 0.00 | 100 | 1015.6 |
| 20260901144743 | 91 | 220 | 2.0 | 4.0 | 0.00 | 0.00 | 0.00 | 100 | 1015.6 |
| 20260901144402 | 91 | 220 | 2.0 | 4.0 | 0.00 | 0.00 | 0.00 | 100 | 1015.6 |
| 20260901144107 | 90 | 25 | 0.0 | 2.0 | 0.00 | 0.00 | 0.00 | 100 | 1015.5 |
| 20260901143902 | 90 | 25 | 0.0 | 2.0 | 0.00 | 0.00 | 0.00 | 100 | 1015.5 |
| 20260901143402 | 90 | 212 | 0.0 | 5.0 | 0.00 | 0.00 | 0.00 | 100 | 1013.7 |
| 20260901142902 | 90 | 181 | 0.0 | 3.0 | 0.00 | 0.00 | 0.00 | 100 | 1014.2 |
| 20260901142811 | 90 | 194 | 0.0 | 3.0 | 0.00 | 0.00 | 0.00 | 100 | 1014.1 |
| 20260901142402 | 90 | 194 | 0.0 | 3.0 | 0.00 | 0.00 | 0.00 | 100 | 1014.1 |
| 20260901141902 | 89 | 109 | 0.0 | 5.0 | 0.00 | 0.00 | 0.00 | 100 | 1014.3 |
| 20260901141714 | 90 | 99 | 5.0 | 7.0 | 0.00 | 0.00 | 0.00 | 100 | 1015.2 |
| 20260901141402 | 90 | 99 | 5.0 | 7.0 | 0.00 | 0.00 | 0.00 | 100 | 1015.2 |
| 20260901140902 | 89 | 126 | 0.0 | 6.0 | 0.00 | 0.00 | 0.00 | 100 | 1015.3 |
| 20260901140402 | 89 | 142 | 2.0 | 5.0 | 0.00 | 0.00 | 0.00 | 100 | 1015.3 |
| 20260901140138 | 88 | 88 | 0.0 | 6.0 | 0.00 | 0.00 | 0.00 | 100 | 1015.3 |
| 20260901135902 | 88 | 88 | 0.0 | 6.0 | 0.00 | 0.00 | 0.00 | 100 | 1015.3 |
| 20260901135402 | 88 | 54 | 0.0 | 4.0 | 0.00 | 0.00 | 0.00 | 100 | 1015.3 |
| 20260901134902 | 88 | 246 | 0.0 | 2.0 | 0.00 | 0.00 | 0.00 | 100 | 1015.3 |
| 20260901134402 | 88 | 219 | 1.0 | 4.0 | 0.00 | 0.00 | 0.00 | 100 | 1015.2 |
| 20260901134145 | 87 | 104 | 3.0 | 5.0 | 0.00 | 0.00 | 0.00 | 100 | 1015.2 |
| 20260901133902 | 87 | 104 | 3.0 | 5.0 | 0.00 | 0.00 | 0.00 | 100 | 1015.2 |
| 20260901133715 | 87 | 63 | 1.0 | 6.0 | 0.00 | 0.00 | 0.00 | 100 | 1015.3 |
| 20260901133402 | 87 | 63 | 1.0 | 6.0 | 0.00 | 0.00 | 0.00 | 100 | 1015.3 |
| 20260901133140 | 87 | 75 | 2.0 | 6.0 | 0.00 | 0.00 | 0.00 | 100 | 1015.3 |
| 20260901132902 | 87 | 75 | 2.0 | 6.0 | 0.00 | 0.00 | 0.00 | 100 | 1015.3 |
| 20260901132637 | 87 | 111 | 3.0 | 5.0 | 0.00 | 0.00 | 0.00 | 100 | 1015.3 |
| 20260901132402 | 87 | 111 | 3.0 | 5.0 | 0.00 | 0.00 | 0.00 | 100 | 1015.3 |
| 20260901131902 | 87 | 94 | 1.0 | 1.0 | 0.00 | 0.00 | 0.00 | 100 | 1015.3 |
| 20260901131402 | 86 | 43 | 0.0 | 3.0 | 0.00 | 0.00 | 0.00 | 100 | 1015.2 |
| 20260901130902 | 86 | 64 | 2.0 | 7.0 | 0.00 | 0.00 | 0.00 | 100 | 1015.2 |
| 20260901130615 | 86 | 73 | 2.0 | 4.0 | 0.00 | 0.00 | 0.00 | 100 | 1015.1 |
| 20260901130402 | 86 | 73 | 2.0 | 4.0 | 0.00 | 0.00 | 0.00 | 100 | 1015.1 |
| 20260901125902 | 85 | 104 | 0.0 | 5.0 | 0.00 | 0.00 | 0.00 | 100 | 1015.0 |
| 20260901125402 | 85 | 60 | 3.0 | 3.0 | 0.00 | 0.00 | 0.00 | 100 | 1015.1 |
| 20260901125126 | 85 | 39 | 0.0 | 4.0 | 0.00 | 0.00 | 0.00 | 100 | 1015.1 |
| 20260901124902 | 85 | 39 | 0.0 | 4.0 | 0.00 | 0.00 | 0.00 | 100 | 1015.1 |
| 20260901124547 | 84 | 29 | 0.0 | 4.0 | 0.00 | 0.00 | 0.00 | 100 | 1015.0 |
| 20260901124402 | 84 | 29 | 0.0 | 4.0 | 0.00 | 0.00 | 0.00 | 100 | 1015.0 |
| 20260901124150 | 84 | 109 | 4.0 | 4.0 | 0.00 | 0.00 | 0.00 | 100 | 1014.9 |
| 20260901123902 | 84 | 109 | 4.0 | 4.0 | 0.00 | 0.00 | 0.00 | 100 | 1014.9 |
| 20260901123402 | 84 | 157 | 0.0 | 4.0 | 0.00 | 0.00 | 0.00 | 100 | 1014.9 |
| 20260901122902 | 84 | 153 | 0.0 | 3.0 | 0.00 | 0.00 | 0.00 | 100 | 1014.9 |
| 20260901122402 | 84 | 75 | 0.0 | 0.0 | 0.00 | 0.00 | 0.00 | 100 | 1014.9 |
| 20260901121902 | 84 | 75 | 0.0 | 0.0 | 0.00 | 0.00 | 0.00 | 100 | 1014.9 |
| 20260901121402 | 83 | 75 | 0.0 | 0.0 | 0.00 | 0.00 | 0.00 | 100 | 1014.8 |
| 20260901120902 | 84 | 75 | 0.0 | 0.0 | 0.00 | 0.00 | 0.00 | 100 | 1014.7 |
| 20260901120703 | 83 | 75 | 0.0 | 0.0 | 0.00 | 0.00 | 0.00 | 100 | 1014.7 |
| 20260901120402 | 83 | 75 | 0.0 | 0.0 | 0.00 | 0.00 | 0.00 | 100 | 1014.7 |
| 20260901120303 | 83 | 75 | 0.0 | 0.0 | 0.00 | 0.00 | 0.00 | 100 | 1014.0 |
| 20260901115902 | 83 | 75 | 0.0 | 0.0 | 0.00 | 0.00 | 0.00 | 100 | 1014.0 |
| 20260901115709 | 83 | 75 | 0.0 | 0.0 | 0.00 | 0.00 | 0.00 | 100 | 1014.6 |
| 20260901115402 | 83 | 75 | 0.0 | 0.0 | 0.00 | 0.00 | 0.00 | 100 | 1014.6 |
| 20260901115216 | 83 | 75 | 0.0 | 0.0 | 0.00 | 0.00 | 0.00 | 100 | 1014.6 |
| 20260901114902 | 83 | 75 | 0.0 | 0.0 | 0.00 | 0.00 | 0.00 | 100 | 1014.6 |
| 20260901114632 | 83 | 75 | 0.0 | 0.0 | 0.00 | 0.00 | 0.00 | 100 | 1014.5 |
| 20260901114402 | 83 | 75 | 0.0 | 0.0 | 0.00 | 0.00 | 0.00 | 100 | 1014.5 |
| 20260901113902 | 83 | 75 | 0.0 | 0.0 | 0.00 | 0.00 | 0.00 | 100 | 1014.6 |
| 20260901113635 | 83 | 75 | 0.0 | 0.0 | 0.00 | 0.00 | 0.00 | 100 | 1014.6 |
| 20260901113402 | 83 | 75 | 0.0 | 0.0 | 0.00 | 0.00 | 0.00 | 100 | 1014.6 |